Location: Gellin
(53.4498°N, 14.3207°E)
Time: 01:46:48
(UTC+00:00)

Cosmos 1821 Rocket - Pass Details

Date: 03 March 2021
Orbit: 945 x 1005 km, 82.9° (Epoch: 11 April)

Event Time Altitude Azimuth Distance (km) Brightness Sun altitude
Exits shadow 18:57:27 35° 91° (E) 1,510 4.5 -20.4°
Maximum altitude 18:57:40 35° 87° (E) 1,507 4.5 -20.4°
Drops below altitude 10° 19:03:11 10° 24° (NNE) 2,704 6.3 -21.2°
Sets 19:05:52 0° 16° (NNE) 3,647 7.1 -21.6°
